{"data":{"norad_id":64553,"epoch":"2026-09-20T19:34:20.635104Z","epoch_age_seconds":154456,"freshness":"FRESH","line1":"1 64553U 25135AB  26263.81551661  .00002345  00000+0  10849-3 0  9999","line2":"2 64553  97.4838  18.5752 0002686  82.9423 277.2118 15.21128419 69403","mean_motion":15.21128419,"eccentricity":0.0002686,"inclination_deg":97.4838,"raan_deg":18.5752,"arg_perigee_deg":82.9423,"mean_anomaly_deg":277.2118,"bstar":0.00010849,"rev_number":6940,"period_min":94.666563454693,"perigee_km":500.5875758549,"apogee_km":504.2838195081,"semimajor_km":6880.5726976815,"source":"CELESTRAK","updated_at":"2026-09-22T09:00:29.845450Z"}}